[[{"header":{"parameterUnit":"m.s-1","parameterCategory":1,"la1":30.2991,"la2":30.254,"lo1":-89.0895,"lo2":-89.0444,"dy":0.0017,"dx":0.0017,"nx":28,"ny":28,"refTime":"2023-10-01T09:00:00:Z","depth":0,"parameterNumber":2,"parameterNumberName":"U-component_of_WINDS"},"data":[0,0,0,0,0,0,0,0,0,0,0,0,0,0,0,0,0,0,0,0,0,0,0,0,0,0,0,0,0,0,0,0,0,0,0,0,0,0,0,0,0,0,0,0,0,0,0,0,0,0,0,0,0,0,0,0,0,0,-6.441,-6.441,0,-6.4466,-6.4467,-6.4467,-6.4367,-6.4364,-6.436,-6.4357,-6.4415,-6.4419,-6.4424,0,0,0,0,0,0,0,0,0,0,0,0,0,-6.4216,-6.422,-6.441,-6.441,-6.4411,-6.4466,-6.4467,-6.4467,-6.4368,-6.4363,-6.4359,-6.4356,-6.4413,-6.4419,-6.4424,0,0,0,0,0,0,0,0,0,0,0,0,0,-6.4289,-6.4222,-6.441,-6.4368,-6.4365,-6.4466,-6.4467,-6.4468,-6.4368,-6.4363,-6.4358,-6.4354,-6.4412,-6.4418,-6.4425,-6.457,0,0,-6.4447,-6.445,0,0,0,0,0,0,0,0,-6.4285,-6.4296,-6.4373,-6.4371,-6.4368,-6.4404,-6.442,-6.4502,-6.437,-6.4367,-6.4357,-6.4351,-6.4415,-6.4422,-6.4443,-6.4572,-6.4575,-6.4447,-6.4452,-6.4455,-6.4457,0,0,0,0,0,0,0,-6.428,-6.4293,-6.4432,-6.4375,-6.4371,-6.4347,-6.4351,-6.4435,-6.4419,-6.4367,-6.436,-6.4368,-6.4413,-6.4437,-6.4444,-6.4576,-6.4447,-6.4453,-6.4458,-6.446,-6.4827,-6.4833,0,0,0,0,0,0,-6.428,-6.429,-6.443,-6.4434,-6.4313,-6.4354,-6.4359,-6.4398,-6.4418,-6.4416,-6.4372,-6.4363,-6.4427,-6.4436,-6.4446,-6.4617,-6.4455,-6.4461,-6.4465,-6.4822,-6.4829,-6.4835,0,0,0,0,0,0,-6.4277,-6.4294,-6.4428,-6.436,-6.4375,-6.4363,-6.4406,-6.4401,-6.4425,-6.4422,-6.4418,-6.44,-6.4424,-6.4436,-6.454,-6.4618,-6.4464,-6.4471,-6.4815,-6.4824,-6.4832,-6.4961,0,0,0,0,0,0,-6.4271,-6.4293,-6.4348,-6.4362,-6.4379,-6.4521,-6.4411,-6.4406,-6.4438,-6.4426,-6.4446,-6.4445,-6.4421,-6.453,-6.4547,-6.4625,-6.4476,-6.4808,-6.4819,-6.4829,-6.4949,-6.4972,-6.4992,0,0,0,0,0,-6.4265,-6.4381,-6.4351,-6.4368,-6.4447,-6.4526,-6.4536,-6.4505,-6.4444,-6.4499,-6.4497,-6.4444,-6.4607,-6.4542,-6.456,-6.4641,-6.4803,-6.4816,-6.4828,-6.494,-6.4968,-6.4991,0,0,0,0,0,0,-6.4376,-6.4382,-6.4349,-6.4473,-6.45,-6.4509,-6.4577,-6.4536,-6.458,-6.4568,-6.4528,-6.4534,-6.4646,-6.4653,-6.4581,-6.4782,-6.4695,-6.4711,-6.4773,-6.48,-6.4821,-6.4817,-6.4482,0,0,0,0,0,-6.4415,-6.4478,-6.448,-6.459,-6.4605,-6.4589,-6.4622,-6.4597,-6.4623,-6.4634,-6.4639,-6.4667,-6.4724,-6.4762,-6.4814,-6.495,-6.4954,-6.5015,-6.5036,-6.5054,-6.5069,-6.5142,-6.517,-6.4876,-6.4876,-6.4875,0,0,-6.4496,-6.4507,-6.455,-6.4613,-6.463,-6.4698,-6.4599,-6.4674,-6.4723,-6.4645,-6.4744,-6.4749,-6.4777,-6.4898,-6.4952,-6.4908,-6.5151,-6.507,-6.5084,-6.5089,-6.5158,-6.5186,-6.5211,-6.4884,-6.4883,-6.4881,0,0,-6.4678,-6.4693,-6.4786,-6.4806,-6.4835,-6.4823,-6.4846,-6.4862,-6.4863,-6.4961,-6.4904,-6.4963,-6.5062,-6.5084,-6.5109,-6.5302,-6.5256,-6.532,-6.5432,-6.5504,-6.5527,-6.5548,-6.5618,-6.5643,-6.5335,-6.5336,-6.5336,0,-6.4775,-6.4874,-6.4839,-6.4919,-6.4949,-6.4881,-6.4976,-6.4997,-6.5042,-6.5064,-6.5014,-6.5138,-6.5152,-6.5278,-6.5326,-6.5347,-6.5373,-6.5318,-6.5527,-6.5547,-6.5565,-6.5632,-6.5658,-6.5343,-6.5342,-6.5342,-6.5341,0,-6.4992,-6.5062,-6.5134,-6.5179,-6.5217,-6.5304,-6.5283,-6.5326,-6.5298,-6.5292,-6.5394,-6.5409,-6.5464,-6.5492,-6.5465,-6.5615,-6.5587,-6.5533,-6.5444,-6.5602,-6.5663,-6.5688,-6.5354,-6.5352,-6.5349,-6.5347,0,0,-6.5245,-6.5271,-6.5298,-6.5319,-6.5346,-6.5399,-6.5483,-6.5537,-6.5575,-6.5608,-6.5678,-6.5765,-6.5715,-6.5743,-6.5718,-6.5782,-6.5935,-6.572,-6.572,-6.576,-6.6104,-6.6145,-6.6175,-6.5905,-6.591,-6.5913,-6.6101,0,-6.5427,-6.5572,-6.5545,-6.5687,-6.5751,-6.5689,-6.5762,-6.5787,-6.5785,-6.5839,-6.5836,-6.5899,-6.5828,-6.5845,-6.5905,-6.5904,-6.6004,-6.589,-6.5971,-6.5974,-6.5966,-6.6206,-6.625,-6.6427,-6.6125,-6.6129,-6.6132,0,-6.5658,-6.5701,-6.585,-6.5868,-6.5894,-6.596,-6.6008,-6.6061,-6.6089,-6.6082,-6.6115,-6.6079,-6.6163,-6.6074,-6.619,-6.6114,-6.6145,-6.615,-6.6156,-6.6163,-6.6063,-6.6221,-6.6482,-6.6509,-6.617,-6.6167,-6.6164,0,-6.5829,-6.5923,-6.6025,-6.6044,-6.6068,-6.6116,-6.6128,-6.6151,-6.6186,-6.6228,-6.625,-6.6302,-6.633,-6.6371,-6.635,-6.6287,-6.6471,-6.6379,-6.6469,-6.647,-6.6511,-6.6509,-6.6782,-6.6531,-6.653,-6.653,-6.6529,0,-6.6035,-6.6129,-6.6102,-6.6165,-6.6268,-6.6236,-6.6339,-6.6344,-6.6365,-6.6428,-6.6377,-6.6437,-6.6405,-6.6464,-6.6447,-6.6548,-6.656,-6.6558,-6.6553,-6.6563,-6.6564,-6.6584,-6.6571,-6.6537,-6.6535,-6.6534,-6.6533,0,-6.6243,-6.6229,-6.6336,-6.635,-6.6356,-6.6432,-6.6444,-6.6503,-6.6496,-6.6577,-6.6594,-6.6585,-6.6651,-6.6634,-6.6705,-6.6695,-6.6821,-6.68,-6.6812,-6.6807,-6.6898,-6.6891,-6.7195,-6.7233,-6.6956,-6.6959,-6.6961,0,-6.6376,-6.6447,-6.6469,-6.6507,-6.6524,-6.6586,-6.6622,-6.6593,-6.6632,-6.667,-6.6725,-6.6786,-6.6834,-6.6943,-6.6943,-6.6998,-6.6978,-6.7081,-6.6986,-6.6994,-6.6981,-6.6977,-6.6984,-6.71,-6.7103,-6.7106,-6.7108,0,-6.6613,-6.6603,-6.6656,-6.6708,-6.6752,-6.6791,-6.6826,-6.686,-6.6834,-6.6881,-6.6948,-6.6985,-6.7059,-6.7121,-6.7172,-6.7185,-6.7143,-6.7138,-6.7162,-6.7173,-6.7177,-6.7177,-6.6864,-6.7131,-6.7128,-6.7127,-6.7126,-6.7125,-6.6788,-6.6849,-6.6874,-6.6936,-6.6959,-6.6993,-6.7049,-6.7051,-6.7106,-6.7164,-6.7144,-6.7221,-6.7248,-6.7312,-6.7332,-6.7392,-6.7353,-6.7387,-6.7396,-6.7405,-6.7417,-6.7168,-6.7401,-6.74,-6.74,-6.7399,-6.7399,0,-6.7024,-6.7037,-6.7094,-6.7144,-6.7193,-6.715,-6.7186,-6.723,-6.7298,-6.7327,-6.7375,-6.7453,-6.7514,-6.7519,-6.7577,-6.7624,-6.7606,-6.764,-6.7637,-6.7641,-6.7448,-6.7422,-6.7654,-6.7654,-6.7654,-6.7653,-6.7653,-6.7653,-6.7152,-6.7253,-6.7246,-6.7358,-6.7371,-6.7446,-6.7471,-6.7502,-6.7525,-6.7615,-6.7665,-6.7668,-6.7688,-6.7747,-6.7801,-6.7801,-6.7824,-6.7866,-6.7859,-6.7679,-6.7654,-6.763,-6.7605,-6.7871,-6.7872,-6.8046,-6.8048,-6.8049]},{"header":{"parameterUnit":"m.s-1","parameterCategory":1,"la1":30.2991,"la2":30.254,"lo1":-89.0895,"lo2":-89.0444,"dy":0.0017,"dx":0.0017,"nx":28,"ny":28,"refTime":"2023-10-01T09:00:00:Z","depth":0,"parameterNumber":3,"parameterNumberName":"V-component_of_WINDS"},"data":[0,0,0,0,0,0,0,0,0,0,0,0,0,0,0,0,0,0,0,0,0,0,0,0,0,0,0,0,0,0,0,0,0,0,0,0,0,0,0,0,0,0,0,0,0,0,0,0,0,0,0,0,0,0,0,0,0,0,-1.8596,-1.8596,0,-1.8565,-1.8564,-1.8564,-1.8509,-1.8508,-1.8507,-1.8506,-1.8475,-1.8475,-1.8476,0,0,0,0,0,0,0,0,0,0,0,0,0,-1.8608,-1.8608,-1.8596,-1.8596,-1.8595,-1.8565,-1.8564,-1.8564,-1.851,-1.8508,-1.8507,-1.8506,-1.8475,-1.8475,-1.8476,0,0,0,0,0,0,0,0,0,0,0,0,0,-1.8593,-1.8608,-1.8596,-1.8564,-1.8561,-1.8565,-1.8564,-1.8564,-1.851,-1.8508,-1.8507,-1.8505,-1.8475,-1.8475,-1.8476,-1.8508,0,0,-1.8476,-1.8476,0,0,0,0,0,0,0,0,-1.8594,-1.8592,-1.8569,-1.8567,-1.8563,-1.8539,-1.8557,-1.8545,-1.851,-1.8529,-1.8506,-1.8505,-1.8498,-1.8496,-1.8494,-1.8506,-1.8505,-1.8476,-1.8476,-1.8476,-1.8476,0,0,0,0,0,0,0,-1.8595,-1.8593,-1.8584,-1.8569,-1.8565,-1.8552,-1.8548,-1.8555,-1.8523,-1.8528,-1.8524,-1.8521,-1.8496,-1.8494,-1.8493,-1.8504,-1.8476,-1.8476,-1.8476,-1.8477,-1.854,-1.8542,0,0,0,0,0,0,-1.86,-1.8595,-1.8585,-1.8583,-1.8575,-1.8553,-1.8548,-1.8549,-1.8523,-1.8517,-1.8522,-1.8518,-1.8494,-1.8492,-1.8491,-1.8526,-1.8476,-1.8477,-1.8477,-1.8539,-1.8541,-1.8542,0,0,0,0,0,0,-1.8601,-1.86,-1.8586,-1.8587,-1.8585,-1.8554,-1.8555,-1.8549,-1.8546,-1.8518,-1.8512,-1.8526,-1.8493,-1.8491,-1.8504,-1.8525,-1.8477,-1.8477,-1.8537,-1.8539,-1.8541,-1.8598,0,0,0,0,0,0,-1.8602,-1.8601,-1.8613,-1.8588,-1.8585,-1.8599,-1.8556,-1.8549,-1.8547,-1.8542,-1.852,-1.8515,-1.8491,-1.8504,-1.8504,-1.8524,-1.8477,-1.8535,-1.8538,-1.8541,-1.8594,-1.8602,-1.8609,0,0,0,0,0,-1.8602,-1.863,-1.8614,-1.8613,-1.8599,-1.8601,-1.8599,-1.8571,-1.8549,-1.8561,-1.8542,-1.8516,-1.8522,-1.8505,-1.8505,-1.8526,-1.8533,-1.8537,-1.854,-1.8591,-1.86,-1.8608,0,0,0,0,0,0,-1.8659,-1.8627,-1.8608,-1.8629,-1.8618,-1.8591,-1.8606,-1.8582,-1.8577,-1.8572,-1.8538,-1.8534,-1.8551,-1.8539,-1.8521,-1.8555,-1.8523,-1.8527,-1.8562,-1.8571,-1.8578,-1.8581,-1.8477,0,0,0,0,0,-1.8674,-1.8678,-1.8649,-1.867,-1.8666,-1.8637,-1.8636,-1.8615,-1.8603,-1.8598,-1.858,-1.8569,-1.8568,-1.8569,-1.8566,-1.8591,-1.8586,-1.8605,-1.8613,-1.8619,-1.8623,-1.8634,-1.8642,-1.8554,-1.8554,-1.8554,0,0,-1.8705,-1.8688,-1.8693,-1.8681,-1.867,-1.8675,-1.8633,-1.864,-1.8643,-1.8599,-1.861,-1.8596,-1.8581,-1.86,-1.8607,-1.8591,-1.8646,-1.8623,-1.8628,-1.8629,-1.8639,-1.8647,-1.8655,-1.8556,-1.8556,-1.8555,0,0,-1.8764,-1.8752,-1.8768,-1.8757,-1.874,-1.872,-1.8724,-1.8701,-1.869,-1.87,-1.8667,-1.8669,-1.8669,-1.866,-1.8655,-1.8708,-1.8683,-1.8708,-1.8747,-1.8758,-1.8765,-1.8771,-1.879,-1.8797,-1.8712,-1.8712,-1.8712,0,-1.8805,-1.8811,-1.8779,-1.8787,-1.8783,-1.8742,-1.8758,-1.8749,-1.8733,-1.8731,-1.8713,-1.871,-1.8698,-1.8713,-1.8726,-1.8723,-1.8726,-1.8711,-1.8767,-1.8772,-1.8777,-1.8795,-1.8802,-1.8715,-1.8715,-1.8714,-1.8714,0,-1.8862,-1.8866,-1.888,-1.8865,-1.8862,-1.8874,-1.8844,-1.8845,-1.8824,-1.8806,-1.8816,-1.8799,-1.8792,-1.8794,-1.8774,-1.8806,-1.8796,-1.8773,-1.8741,-1.879,-1.8805,-1.8812,-1.8719,-1.8718,-1.8717,-1.8717,0,0,-1.8958,-1.8923,-1.8929,-1.8921,-1.8899,-1.8901,-1.8911,-1.8903,-1.8905,-1.8894,-1.8901,-1.8901,-1.8878,-1.8873,-1.8851,-1.8861,-1.8904,-1.8836,-1.8835,-1.8849,-1.8938,-1.8956,-1.8964,-1.8887,-1.8888,-1.8889,-1.8939,0,-1.9012,-1.9027,-1.8998,-1.9019,-1.9022,-1.8983,-1.8991,-1.8978,-1.8961,-1.896,-1.8941,-1.8941,-1.8912,-1.8908,-1.8916,-1.8897,-1.8921,-1.8893,-1.8893,-1.8893,-1.8899,-1.8973,-1.8992,-1.9041,-1.8945,-1.8946,-1.8947,0,-1.9079,-1.9071,-1.9092,-1.9067,-1.9067,-1.9075,-1.9065,-1.9066,-1.905,-1.9036,-1.9029,-1.9003,-1.901,-1.8978,-1.8988,-1.8969,-1.8967,-1.8957,-1.8958,-1.8958,-1.8924,-1.8975,-1.9056,-1.9063,-1.8956,-1.8956,-1.8955,0,-1.9147,-1.9141,-1.9153,-1.9147,-1.9118,-1.9125,-1.9113,-1.9095,-1.9092,-1.9084,-1.9081,-1.9073,-1.907,-1.9064,-1.9036,-1.9016,-1.9048,-1.9015,-1.9038,-1.9038,-1.9047,-1.9047,-1.913,-1.9045,-1.9045,-1.9045,-1.9045,0,-1.9211,-1.9226,-1.9183,-1.9191,-1.9205,-1.9171,-1.9187,-1.9171,-1.9155,-1.9159,-1.9124,-1.9128,-1.909,-1.909,-1.9068,-1.9079,-1.9077,-1.9067,-1.9061,-1.907,-1.9072,-1.9069,-1.9065,-1.9047,-1.9047,-1.9046,-1.9046,0,-1.929,-1.9262,-1.9272,-1.9243,-1.9236,-1.9249,-1.9224,-1.9229,-1.9209,-1.9214,-1.9213,-1.9181,-1.9179,-1.915,-1.9142,-1.9127,-1.9146,-1.9134,-1.9152,-1.9148,-1.9173,-1.9171,-1.9257,-1.9266,-1.9176,-1.9177,-1.9177,0,-1.9334,-1.9344,-1.9316,-1.9315,-1.9305,-1.9305,-1.9301,-1.9267,-1.9265,-1.9246,-1.9254,-1.9248,-1.9242,-1.924,-1.9216,-1.9209,-1.9197,-1.9227,-1.9196,-1.9204,-1.9197,-1.9197,-1.9198,-1.9234,-1.9236,-1.9237,-1.9237,0,-1.9414,-1.9399,-1.9395,-1.9385,-1.9382,-1.9373,-1.9362,-1.9363,-1.9326,-1.9325,-1.9322,-1.9317,-1.9307,-1.9302,-1.9291,-1.9278,-1.9252,-1.9247,-1.9252,-1.9262,-1.9272,-1.9267,-1.9171,-1.9246,-1.9245,-1.9244,-1.9244,-1.9243,-1.9477,-1.9483,-1.9464,-1.946,-1.9448,-1.9438,-1.9442,-1.9421,-1.9418,-1.9407,-1.9387,-1.9387,-1.9369,-1.935,-1.934,-1.9339,-1.9323,-1.933,-1.9332,-1.9335,-1.934,-1.9272,-1.9337,-1.9336,-1.9336,-1.9336,-1.9336,0,-1.9555,-1.954,-1.9537,-1.9522,-1.9519,-1.9493,-1.9479,-1.9478,-1.9478,-1.9463,-1.9457,-1.9453,-1.9447,-1.9422,-1.9414,-1.9418,-1.9406,-1.9417,-1.9417,-1.9414,-1.9354,-1.9351,-1.9427,-1.9427,-1.9427,-1.9427,-1.9427,-1.9427,-1.9595,-1.9605,-1.9588,-1.9591,-1.9576,-1.9575,-1.9569,-1.9559,-1.9547,-1.9544,-1.9539,-1.9522,-1.9503,-1.9493,-1.9486,-1.9479,-1.9478,-1.9494,-1.9483,-1.9427,-1.9419,-1.941,-1.9407,-1.9494,-1.9494,-1.9542,-1.9543,-1.9543]}]]